DECAYED

STARLINK-1258, 45381 (Decayed)

Orbit data source: Space-Track

STARLINK-1258, 45381 was a payload satellite owned by SpaceX/Seattle (US) in LEO that was launched on Wed, 18 Mar 2020 UTC via an FALCON 9 launch vehicle from the Air Force Eastern Test Range (AFETR). Payload-class satellites include a variety of spacecraft equipped with specific instruments for various scientific and technological missions. These include communications satellites like Starlink; space stations such as the ISS; scientific satellites like the Hubble; Earth observation satellites from companies like Planet Labs, Umbra, and HawkEye 360; GPS; miniature CubeSats for education and research; and military/defense satellites.

Not visible in the next 10 days
Identifier
45381, 2020-019X
Orbit
Decayed
Country
Flag of USUS
Related business
Manufacturer
SpaceX/Seattle
Mission
Decayed Commercial Communications
Bus & Motor
STARLINK, Unknown motor
Mass
260 kg wet, ~248 kg dry
Launch date (UTC)
2020-03-18 (6 years ago)
Launch vehicle
FALCON 9
Launch site
Air Force Eastern Test Range (AFETR)
Object type
Payload
Rocket body
Debris
Shape & HBR
Box + 1 Pan, 10.1 m
Radar Cross Section
13.562 m², Large (>1 m²)

Expand to show TLE details & history
Last TLE update: 3 weeks ago

TLE from 3 weeks ago
0 STARLINK-1258
1 45381U 20019X   25275.99916488  .13605510  12552-4  25511-3 0  9995
2 45381  53.0284  70.1463 0004818 262.7092  97.3410 16.47213686307137
Epoch: 2025-10-02T23:58Z
TLE epoch observation values (Epoch: 2025-10-02T23:58:47.845Z)
Latitude
-0.00001°
Longitude
58.49516°
Altitude
148.016 km
Speed
7.818 km/s
True Right ascension
04h 40m 35s
True Declination
0° 00' 00"
Sunlit
Object was in full shadow at epoch
Visualization orbit readout
Latitude
Unknown
Longitude
Unknown
Altitude
Unknown
Speed
Unknown
Apparent Right ascension
Unknown
Apparent Declination
Unknown
Sunlit
N/A
Visualization observer readout
Local Sidereal Time
00:02:33
Azimuth
Unknown
Elevation
Unknown
Doppler factor
Unknown
Orbital elements
Apogee altitude
150.118 km
Perigee altitude
143.831 km
Semi-major axis
6,525.111 km
Eccentricity
0.00048
Inclination
53.0284°
RAAN
70.1463°
Arg. of periapsis
262.7092°
True anomaly
97.39575°
Mean anomaly
97.341°
Eccentric anomaly
97.36838°
Mean motion
4.11776 °/min
Orbital period
87.43 mins
BSTAR
0.00025511
Loading maneuver chart data...
Computing Atmospheric mass density...

Documentation

Showing up to 5 results
|